Flag for Cuba Weather past 2 weeks in Holguín, Cuba

Now
73 °F

Passing clouds.


Feels Like: 73 °F
Forecast: 74 / 90 °F
Wind: 5 mph from Southeast

Location: Holguin Civ / Mil

Current Time: Sep 17, 2014 at 12:38:31 AM

Latest Report: Sep 16, 2014 at 11:50 PM


Visibility: 5 mi

Pressure: 30.01 "Hg

Humidity: 83%

Dew point: 68 °F

Location of HolguínLocation

Historic Weather in Holguín — Graph

°F

Holguín temperature yesterday

Maximum temperature yesterday: 91 °F (at 2:50 PM)
Minimum temperature yesterday: 73 °F (at 3:50 AM)
Average temperature yesterday: 80 °F

Past Weeks' High & Low Weather Summary

 TemperatureHumidityPressure
High95 °F (Sep 3, 2:50 PM)100% (Sep 2, 6:51 AM)30.07 "Hg (Sep 2, 6:51 AM)
Low68 °F (Sep 3, 1:51 AM)38% (Sep 11, 2:50 PM)29.86 "Hg (Sep 11, 4:50 PM)
Average79 °F80%29.98 "Hg
* Reported Sep 1 10:50 PM — Sep 16 10:50 PM, Holguín, Weather by CustomWeather, © 2014

Note: Actual official high and low records may vary slightly from our data, if they occured in-between our weather recording intervals... More about our weather records

Advertising

Holguín weather history for previous 24 hours

 ConditionsComfort  
Time TempWeatherWind HumidityBarometerVisibility
10:50 PM
Sep 16
73 °FPassing clouds.5 mph83%29.98 "Hg5 mi
9:50 PM73 °FPassing clouds.5 mph83%30.01 "Hg5 mi
8:50 PM73 °FThundershowers. Passing clouds.3 mph83%30.01 "Hg5 mi
7:50 PM75 °FThundershowers. Partly sunny.3 mph78%29.98 "Hg5 mi
6:50 PM77 °FThundershowers. Scattered clouds.6 mph69%29.98 "Hg5 mi
5:51 PM79 °FThundershowers. Scattered clouds.9 mph61%29.95 "Hg5 mi
4:50 PM88 °FScattered clouds.13 mph49%29.92 "HgN/A
3:51 PM91 °FScattered clouds.10 mph41%29.89 "HgN/A
2:50 PM91 °FScattered clouds.9 mph44%29.92 "HgN/A
1:50 PM90 °FScattered clouds.9 mph49%29.95 "HgN/A
12:51 PM90 °FScattered clouds.9 mph49%29.98 "HgN/A
11:50 AM88 °FScattered clouds.10 mph59%30.01 "HgN/A
9:50 AM84 °FScattered clouds.8 mph66%30.04 "HgN/A
8:50 AM81 °FScattered clouds.7 mph79%30.04 "Hg6 mi
7:51 AM77 °FFog.1 mph89%30.01 "Hg5 mi
6:52 AM75 °FFog.2 mph89%30.01 "Hg3 mi
5:50 AM75 °FFog.6 mph89%29.98 "Hg4 mi
4:50 AM73 °FPassing clouds.5 mph89%29.98 "Hg5 mi
3:50 AM73 °FPassing clouds.2 mph89%29.98 "Hg5 mi
2:50 AM75 °FLight rain. Passing clouds.7 mph83%30.01 "Hg5 mi
1:50 AM77 °FPassing clouds.3 mph83%30.04 "Hg5 mi
12:50 AM77 °FPassing clouds.3 mph83%30.04 "Hg5 mi
Weather by CustomWeather, © 2014

See weather overviewHow to use our weather pages